Location: Chabot Space and Science Center
(37.8191°N, 122.1819°W)
Time: 07:47:44
(UTC-08:00)

Tiangong - Visible Passes

Search period start: 03 December 2021 00:00
Search period end: 13 December 2021 00:00
Orbit: 380 x 384 km, 41.5° (Epoch: 02 December)

Date Brightness Start Highest point End Pass type
(mag) Time Alt. Az. Time Alt. Az. Time Alt. Az.
05 Dec 3.4 18:29:56 10° S 18:31:11 15° SSE 18:31:11 15° SSE visible
06 Dec 3.8 19:05:03 10° SW 19:06:00 18° SW 19:06:00 18° SW visible
07 Dec 2.3 18:04:57 10° SSW 18:07:44 29° SSE 18:08:32 25° ESE visible
08 Dec 1.8 18:40:43 10° WSW 18:43:11 51° WSW 18:43:11 51° WSW visible
09 Dec 1.5 17:40:19 10° SW 17:43:23 51° SSE 17:45:36 17° E visible
09 Dec 4.3 19:17:08 10° W 19:17:45 15° W 19:17:45 15° W visible
10 Dec 1.2 18:16:27 10° W 18:19:35 63° NNW 18:20:06 52° NE visible
11 Dec 1.1 17:15:51 10° WSW 17:19:00 85° SSE 17:22:09 10° ENE visible
11 Dec 3.1 18:52:55 10° WNW 18:54:35 25° WNW 18:54:35 25° WNW visible
12 Dec 1.6 17:52:11 10° W 17:55:15 47° N 17:56:52 23° NE visible
